SL-4 R/B

Last updated on Aug. 12, 2020, 12:02 a.m. UTC

1 39679U 14021B   20224.17635498 -.00000165  00000-0  10626-4 0  9997
2 39679  51.6141 213.4543 0172174 135.3043 226.1952 15.06457521347598

Satellite is not in orbit.